Regional Weather Roundup
Issued by NWS

Home | Current Version | Previous Version | Text Only | Print | Product List | Glossary On
Versions: 1 2 3 4 5 6 7 8 9 10 11 12 13 14 15 16 17 18 19 20 21 22 23 24 25 26 27 28 29 30 31 32 33 34 35 36 37 38 39 40 41 42 43 44 45 46 47 48 49 50
000
ASUS44 KBMX 231310
RWRAL

ALABAMA REGIONAL WEATHER ROUNDUP
NATIONAL WEATHER SERVICE BIRMINGHAM AL
800 AM CDT SAT AUG 23 2014

NOTE: "FAIR" INDICATES FEW OR NO CLOUDS BELOW 12,000 FEET
WITH NO SIGNIFICANT WEATHER AND/OR OBSTRUCTIONS TO VISIBILITY.

THE REMARK "TC" DENOTES TEMPERATURE IN DEGREES CELSIUS.

ALZ001>011-014-016>018-020-231400-
NORTH ALABAMA

CITY           SKY/WX    TMP DP  RH WIND       PRES   REMARKS
MUSCLE SHOALS  SUNNY     78  72  81 CALM      30.06R
HUNTSVILLE     MOSUNNY   78  74  87 CALM      30.05S
DECATUR        SUNNY     79  75  87 CALM      30.06R
HALEYVILLE     FAIR      77  73  87 CALM      30.10R
GADSDEN        SUNNY     75  70  83 CALM      30.05S
$$

ALZ012-013-022-023-030>036-040>044-231400-
WEST CENTRAL ALABAMA

CITY           SKY/WX    TMP DP  RH WIND       PRES   REMARKS
TUSCALOOSA     SUNNY     78  73  84 CALM      30.05R
$$

ALZ015-024>027-033>036-040>044-231400-
CENTRAL ALABAMA

CITY           SKY/WX    TMP DP  RH WIND       PRES   REMARKS
BIRMINGHAM     SUNNY     79  71  76 CALM      30.08R
MONTGOMERY     SUNNY     83  73  72 NW5       30.02S
SHELBY CO ARPT SUNNY     81  73  76 N3        30.05R
MAXWELL AFB    SUNNY     80  73  79 NW3       30.02S
GREENVILLE     FAIR      82  74  76 N3        30.03S
$$

ALZ019-021-028-029-037-038-045>048-231400-
EAST CENTRAL ALABAMA

CITY           SKY/WX    TMP DP  RH WIND       PRES   REMARKS
ANNISTON       MOSUNNY   76  72  87 CALM      30.06R
ALEXANDER CITY SUNNY     82  71  69 N3        30.04S
AUBURN         SUNNY     81  72  74 N6        30.07S
$$

ALZ051>064-231400-
SOUTHWEST ALABAMA

CITY           SKY/WX    TMP DP  RH WIND       PRES   REMARKS
MOBILE         MOSUNNY   81  76  84 NW6       30.04R
BROOKLEY FIELD SUNNY     84  77  79 NW5       30.04R HX  94
EVERGREEN      SUNNY     81  75  82 CALM      30.04R
$$

ALZ049-050-065>069-231400-
SOUTHEAST ALABAMA

CITY           SKY/WX    TMP DP  RH WIND       PRES   REMARKS
DOTHAN         SUNNY     81  73  76 NW9       30.05S
OZARK          SUNNY     80  74  81 NW6       30.02S
TROY           SUNNY     80  75  84 CALM      30.03S
EUFAULA        FAIR      82  74  76 CALM      30.01R
$$


USA.gov is the U.S. government's official web portal to all federal, state and local government web resources and services.